{"data":{"norad_id":47628,"epoch":"2026-05-25T04:09:57.864960Z","epoch_age_seconds":70307,"freshness":"FRESH","line1":"1 47628U 21012J   26145.17358640  .00010014  00000+0  33389-3 0  9999","line2":"2 47628  53.1603  69.2664 0001374  87.4654 272.6504 15.31712665291802","mean_motion":15.31712665,"eccentricity":0.0001374,"inclination_deg":53.1603,"raan_deg":69.2664,"arg_perigee_deg":87.4654,"mean_anomaly_deg":272.6504,"bstar":0.00033389,"rev_number":29180,"period_min":94.012410610968,"perigee_km":469.761211268,"apogee_km":471.64327229164,"semimajor_km":6848.8392417798,"source":"CELESTRAK","updated_at":"2026-05-25T13:38:16.560319Z"}}